Regional Weather Roundup
Issued by NWS Northern Indiana

Home | Current Version | Previous Version | Graphics & Text | Print | Product List | Glossary On
Versions: 1 2 3 4 5 6 7 8 9 10 11 12 13 14 15 16 17 18 19 20 21 22 23 24 25 26 27 28 29 30 31 32 33 34 35 36 37 38 39 40 41 42 43 44 45 46 47 48 49 50
000
ASUS43 KIWX 181500
RWRIWX

KIWX WEATHER ROUNDUP
NATIONAL WEATHER SERVICE NORTHERN INDIANA
1000 AM EST SAT NOV 18 2017

NOTE: "FAIR" INDICATES FEW OR NO CLOUDS BELOW 12,000 FEET WITH NO
SIGNIFICANT WEATHER AND/OR OBSTRUCTIONS TO VISIBILITY.

* THESE STATIONS ARE NOT UNDER NWS QUALITY CONTROL. THEY ALSO MAY NOT
  REPORT WEATHER SUCH AS PRECIPITATION OR FOG.

INZ001>027-181600-
NORTHERN INDIANA

CITY           SKY/WX    TMP DP  RH WIND       PRES   REMARKS
GARY*          RAIN      46  46 100 N23       29.43F
MICHIGAN CITY* LGT RAIN  45  45 100 NE3       29.40F
LAPORTE*       LGT RAIN  44  44  99 E7        29.38F
KNOX*          CLOUDY    45  45 100 N8        29.38F
SOUTH BEND     LGT RAIN  44  44 100 N3        29.44F VSB 3/4
ELKHART*       RAIN      45  45 100 CALM      29.43F
GOSHEN         HVY RAIN  47  44  90 CALM      29.42F FOG
MONTICELLO*    HVY RAIN  51  49  95 E8        29.34F
WARSAW*        RAIN      45  45 100 SE3       29.42F
AUBURN*        MIX PCPN  46  45  93 E5        29.43F
FORT WAYNE     TSTM      50  50 100 SE6       29.43F VSB 1
PERU/GRISSOM   TSTM      51  51 100 E9        29.36F FOG

$$
INZ028>050-181600-
CENTRAL INDIANA

CITY           SKY/WX    TMP DP  RH WIND       PRES   REMARKS
LAFAYETTE      CLOUDY    53  53 100 E12       29.31F FOG
KOKOMO*        TSTM      51  51 100 E8        29.37F FOG
MUNCIE*        CLOUDY    54  52  93 SE6       29.41F FOG
INDIANAPOLIS   CLOUDY    62  57  83 S20G31    29.36F

$$
MIZ043>046-050>051-056>058-064>065-071>073-077>080-181600-
SOUTHWEST LOWER MICHIGAN

CITY           SKY/WX    TMP DP  RH WIND       PRES   REMARKS
BATTLE CREEK   FOG       44  44 100 NE5       29.44F VSB 1/4
BENTON HARBOR  LGT RAIN  45  42  89 VRB5      29.43F FOG
HOLLAND        LGT RAIN  42  40  92 N7        29.46F FOG
GRAND RAPIDS   DRZL/FOG  43  43 100 NE6       29.45F VSB 1
KALAMAZOO      LGT RAIN  45  42  89 N5        29.44F VSB 1/4

$$
OHZ001>008-015>018-024>025-181600-
NORTHWEST OHIO

CITY           SKY/WX    TMP DP  RH WIND       PRES   REMARKS
DEFIANCE       RAIN      47  45  93 E5        29.45F FOG
FINDLAY        LGT RAIN  51  47  86 S10       29.47F
TOLEDO EXPRESS CLOUDY    48  48 100 SE3       29.45F FOG
TOLEDO METCALF CLOUDY    47  46  97 SE8       29.47F FOG
LIMA           RAIN      51  49  92 S8        29.47S

$$
AND FOR LAKE MICHIGAN COASTAL AND OPEN LAKE BUOY OBSERVATIONS

STATION/POSITION TEMP    WIND        PRES    VSBY  WAVE
                 AIR SEA DIR/SP/G                  HT/PER
                 (F)     (DEG/KT/KT) (MB)    (MI)  (FT/S)
MICHIGAN CITY     45      30/ 18/ 19   N/A
BURNS HARBOR      47      30/ 16/ 18  997.6
SAINT JOSEPH      45      40/  8/ 15  998.3
SOUTH LAKE BUOY   44 49   20/ 16/ 17  999.0          2/ 4

$$
&&




USA.gov is the U.S. government's official web portal to all federal, state and local government web resources and services.